This demonstration page uses our WeatherBlox Daily Observations layout. Learn more.

Left ArrowRight Arrow

39.51506, -84.39828

Hourly Observations for September 22, 2015

Temp ( °F °C ) Dew Point ( °F °C ) Humidity (%) Winds ( mph kmh ) Pressure ( in mb ) Visibility ( mi km ) Precip ( " mm )
12:15 am 00:15 Clear 57 13.8 48 9 73 73 NNE 3 6 30.12 1020 10 16.0934 0 0
12:35 am 00:35 Clear 57 13.8 49 9.5 75 75 NNE 3 6 30.12 1020 10 16.0934 0 0
12:55 am 00:55 Clear 55 12.5 48 8.9 79 79 N 5 7 30.12 1020 10 16.0934 0 0
1:15 am 01:15 Clear 55 12.5 48 9.1 80 80 ENE 3 6 30.12 1020 10 16.0934 0 0
1:35 am 01:35 Clear 55 12.5 49 9.7 83 83 Calm 30.12 1020 10 16.0934 0 0
1:55 am 01:55 Clear 55 12.5 48 9 79 79 NE 3 6 30.12 1020 10 16.0934 0 0
2:15 am 02:15 Clear 55 12.5 50 9.9 84 84 NE 3 6 30.12 1020 10 16.0934 0 0
2:35 am 02:35 Clear 55 12.5 50 10 85 85 Calm 30.12 1020 10 16.0934 0 0
2:55 am 02:55 Clear 54 12.3 50 9.8 85 85 Calm 30.15 1021 10 16.0934 0 0
3:15 am 03:15 Clear 52 10.9 48 8.7 86 86 Calm 30.15 1021 10 16.0934 0 0
3:35 am 03:35 Clear 55 12.5 50 9.9 84 84 Calm 30.15 1021 10 16.0934 0 0
3:55 am 03:55 Clear 52 11 48 8.8 86 86 Calm 30.15 1021 10 16.0934 0 0
4:15 am 04:15 Clear 54 12.3 50 9.9 85 85 Calm 30.15 1021 10 16.0934 0 0
4:35 am 04:35 Clear 52 11 48 8.9 87 87 Calm 30.15 1021 10 16.0934 0 0
4:55 am 04:55 Clear 52 11 48 9 88 88 Calm 30.15 1021 10 16.0934 0 0
5:15 am 05:15 Clear 52 11 47 8.5 85 85 Calm 30.15 1021 10 16.0934 0 0
5:35 am 05:35 Clear 52 11 48 8.7 86 86 Calm 30.18 1022 10 16.0934 0 0
5:55 am 05:55 Clear 52 11 48 9 88 88 Calm 30.18 1022 10 16.0934 0 0
6:15 am 06:15 Clear 52 11 48 9 88 88 Calm 30.18 1022 10 16.0934 0 0
6:35 am 06:35 Clear 52 10.9 48 8.9 88 88 Calm 30.18 1022 10 16.0934 0 0
6:55 am 06:55 Clear 49 9.6 46 7.7 88 88 Calm 30.21 1023 10 16.0934 0 0
7:15 am 07:15 Clear 50 10.1 47 8.4 89 89 Calm 30.21 1023 10 16.0934 0 0
7:35 am 07:35 Sunny 50 9.8 46 7.9 88 88 Calm 30.21 1023 10 16.0934 0 0
7:55 am 07:55 Sunny 50 10.2 47 8.3 88 88 Calm 30.21 1023 10 16.0934 0 0
8:15 am 08:15 Sunny 53 11.7 49 9.7 88 88 Calm 30.21 1023 10 16.0934 0 0
8:35 am 08:35 Sunny 55 12.5 50 10.2 86 86 Calm 30.21 1023 10 16.0934 0 0
8:55 am 08:55 Sunny 57 13.8 52 11.1 84 84 Calm 30.24 1024 10 16.0934 0 0
9:15 am 09:15 Sunny 60 15.3 54 12.1 81 81 Calm 30.24 1024 10 16.0934 0 0
9:35 am 09:35 Sunny 60 15.3 53 11.5 78 78 E 3 6 30.24 1024 10 16.0934 0 0
9:55 am 09:55 Sunny 62 16.5 54 12.4 77 77 NNE 3 6 30.24 1024 10 16.0934 0 0
10:15 am 10:15 Sunny 64 18 56 13.2 74 74 Calm 30.21 1023 10 16.0934 0 0
10:35 am 10:35 Sunny 69 20.6 59 15.2 71 71 ENE 3 6 30.21 1023 10 16.0934 0 0
10:55 am 10:55 Sunny 69 20.8 58 14.4 67 67 ENE 3 6 30.21 1023 10 16.0934 0 0
11:15 am 11:15 Sunny 69 20.8 57 13.8 64 64 Calm 30.21 1023 10 16.0934 0 0
11:35 am 11:35 Sunny 74 23.6 59 15.1 59 59 E 3 6 30.21 1023 10 16.0934 0 0
12:00 pm 12:00 Sunny 74 23.6 57 13.8 54 54 Calm 30.21 1023 10 16.0934 0 0
12:15 pm 12:15 Sunny 75 24.1 56 13.3 51 51 Calm 30.21 1023 10 16.0934 0 0
12:35 pm 12:35 Sunny 77 25.1 53 11.7 43 43 Calm 30.21 1023 10 16.0934 0 0
12:55 pm 12:55 Sunny 77 25.1 49 9.4 37 37 ENE 3 6 30.18 1022 10 16.0934 0 0
1:15 pm 13:15 Sunny 79 26.2 50 10 36 36 E 5 7 30.18 1022 10 16.0934 0 0
1:35 pm 13:35 Sunny 79 26.2 51 10.8 38 38 NE 3 6 30.18 1022 10 16.0934 0 0
1:55 pm 13:55 Sunny 78 25.5 49 9.7 37 37 N 3 6 30.18 1022 10 16.0934 0 0
2:15 pm 14:15 Sunny 80 26.5 48 9.1 33 33 ESE 3 6 30.18 1022 10 16.0934 0 0
2:35 pm 14:35 Sunny 80 26.5 46 7.8 31 31 NE 7 11 30.18 1022 10 16.0934 0 0
2:55 pm 14:55 Sunny 80 26.5 47 8.4 32 32 N 5 7 30.18 1022 10 16.0934 0 0
3:15 pm 15:15 Sunny 80 26.5 46 8 31 31 NE 3 6 30.15 1021 10 16.0934 0 0
3:35 pm 15:35 Sunny 81 27.2 47 8.1 30 30 SE 8 13 30.15 1021 10 16.0934 0 0
3:55 pm 15:55 Sunny 81 27 49 9.3 33 33 E 6 9 30.15 1021 10 16.0934 0 0
4:15 pm 16:15 Sunny 81 27.2 47 8.2 30 30 ENE 5 7 30.15 1021 10 16.0934 0 0
4:35 pm 16:35 Sunny 81 27 45 7.3 29 29 Calm 30.15 1021 10 16.0934 0 0
4:55 pm 16:55 Sunny 81 27 45 7.1 28 28 NE 5 7 30.15 1021 10 16.0934 0 0
5:15 pm 17:15 Sunny 81 27.2 46 7.6 29 29 ENE 3 6 30.15 1021 10 16.0934 0 0
5:35 pm 17:35 Sunny 80 26.6 45 7 29 29 NE 3 6 30.15 1021 10 16.0934 0 0
5:55 pm 17:55 Sunny 81 27.1 46 7.9 30 30 ENE 6 9 30.15 1021 10 16.0934 0 0
6:15 pm 18:15 Sunny 80 26.5 46 7.7 30 30 NE 3 6 30.15 1021 10 16.0934 0 0
6:35 pm 18:35 Sunny 80 26.5 49 9.3 34 34 NE 3 6 30.15 1021 10 16.0934 0 0
6:55 pm 18:55 Sunny 78 25.6 50 10.1 38 38 NE 3 6 30.15 1021 10 16.0934 0 0
7:15 pm 19:15 Sunny 74 23.6 56 13.1 52 52 Calm 30.15 1021 10 16.0934 0 0
7:35 pm 19:35 Sunny 69 20.8 58 14.7 68 68 Calm 30.15 1021 10 16.0934 0 0
7:55 pm 19:55 Clear 69 20.8 60 15.3 71 71 Calm 30.15 1021 10 16.0934 0 0
8:15 pm 20:15 Clear 67 19.5 59 14.9 75 75 Calm 30.15 1021 10 16.0934 0 0
8:35 pm 20:35 Clear 63 17 55 13 77 77 N 3 6 30.21 1023 10 16.0934 0 0
8:55 pm 20:55 Clear 63 17 56 13.5 80 80 N 3 6 30.21 1023 10 16.0934 0 0
9:15 pm 21:15 Clear 62 16.6 56 13.5 82 82 Calm 30.21 1023 10 16.0934 0 0
9:35 pm 21:35 Clear 61 16 55 13 83 83 Calm 30.21 1023 10 16.0934 0 0
9:55 pm 21:55 Clear 61 16 55 13 83 83 Calm 30.21 1023 10 16.0934 0 0
10:15 pm 22:15 Clear 60 15.3 55 12.7 85 85 Calm 30.21 1023 10 16.0934 0 0
10:35 pm 22:35 Clear 60 15.3 55 12.6 84 84 Calm 30.21 1023 10 16.0934 0 0
10:55 pm 22:55 Clear 60 15.3 55 13 86 86 Calm 30.21 1023 10 16.0934 0 0
11:15 pm 23:15 Clear 60 15.3 55 12.8 85 85 Calm 30.24 1024 10 16.0934 0 0
11:35 pm 23:35 Clear 60 15.3 55 12.8 85 85 Calm 30.24 1024 10 16.0934 0 0
11:55 pm 23:55 Clear 60 15.3 55 12.7 85 85 Calm 30.24 1024 10 16.0934 0 0

Powered by AerisWeather